Weather WX

World > North America > United States > Oregon

Hermiston, Oregon Regional Weather

Lat: 45.83N, Lon: 119.28W
Wx Zone: ORZ044
Feedback

Hermiston, OR Regional Weather

Expires:201906201800;;794338
ASUS46 KPQR 201710
RWROR 

OREGON REGIONAL WEATHER ROUNDUP
NATIONAL WEATHER SERVICE PORTLAND OR
1000 AM PDT THU JUN 20 2019

NOTE: "FAIR" INDICATES FEW OR NO CLOUDS BELOW 12,000 FEET WITH
NO SIGNIFICANT WEATHER AND/OR OBSTRUCTIONS TO VISIBILITY.


ORZ029>031-041-044-049-050-061>064-502-503-505>511-201800-
EASTERN OREGON

  
CITY           SKY/WX    TMP DP  RH WIND       PRES   REMARKS
MADRAS         PTSUNNY   55  34  44 NW17G26   30.11S                  
REDMOND        PTSUNNY   55  33  43 NW13      30.08F                  
BEND           PTSUNNY   54  30  40 NW16G23   30.08S                  
PRINEVILLE     MOSUNNY   52  32  46 W14G21    30.08S                  
KLAMATH FALLS  SUNNY     55  32  41 NW16      30.08S                  
LAKEVIEW       MOSUNNY   55  30  38 VRB3      30.06S HAZE             
HERMISTON      MOSUNNY   63  41  44 W21       29.99F                  
PENDLETON      CLOUDY    54  39  57 W20G31    29.99F                  
JOHN DAY       CLOUDY    44  38  79 W12       30.05R                  
MEACHAM        LGT RAIN  40  37  89 VRB7      29.99S FOG              
LA GRANDE      LGT RAIN  48  37  66 W12       30.01S                  
BAKER CITY     PTSUNNY   50  32  50 N15       29.98R                  
BURNS          MOSUNNY   54  29  38 NW22G29   30.03S                  
ROME             N/A     55  30  38 NW23G32   29.99R                  
ONTARIO        CLOUDY    60  32  34 W14       29.96F                  
$$
  

SKY/WX - Weather  TMP - Temperature  DP - Dew Point  RH - Relative Humidity
WIND - Wind Direction/Speed PRES - Barometric Pressure VSB - Visibility
WCI - Wind Chill Index E13G22 Wind - East Wind 13 mph/Gusts of 22 mph